Back to catalog

DELTA 1 DEB *

AliveUNKNOWN
NORAD 18599·DEBRIS·🇺🇸 United States

Launched Jul 29, 1976 from Vandenberg Space Force Base

Loading…

Next Passes (next 24 hours)

TLE

FreshSource: Space-Track

Epoch: Sep 12, 2026, 22:57 UTC

1 18599U 76077FE  26255.95677236  .00003492  00000-0  19131-1 0  9998
2 18599 100.8771  58.1484 0752960 187.6783 329.0918 11.99835909791763

Track DELTA 1 DEB * in real time with AllMySat

Download on the App Store